Вернуться в каталог

CZ-6A R/B

АктивенSSO
NORAD 59344·ROCKET BODY·🇨🇳 China

Запущен Mar 26, 2024 с Taiyuan Satellite Launch Center

Loading…

Ближайшие Пролёты (ближайшие 24 часа)

TLE

СвежийSource: Space-Track

Эпоха: Sep 14, 2026, 21:13 UTC

1 59344U 24058B   26257.88458627 -.00000022  00000-0  91793-5 0  9993
2 59344  98.7779 285.3483 0077235 253.4069 105.8620 14.28649090128770

Отслеживайте CZ-6A R/B в реальном времени с AllMySat

Download on the App Store